Weather in Sosnovka

Russia / Volgograd Oblast     50°47′51″N   44°16′33″E
temp.,
°C
wind,
m/s
gust,
m/s
humid.,
%
clouds,
%
prec.,
mm/h
press.,
hPa
HPBL,
m
9 march, tue
tue900:00−4w1197100 0.4 100822
03:00−5nw1197100 0.7 100924
06:00−6n2397100 0.4 1009120
09:00−7nnw359198 0.8 1010194
12:00−6nw348561 0.0 1011302
15:00−5nw458749 0.0 1012502
18:00−8nw379660 0.1 1013236
21:00−12nw489561 0.1 1016161
10 march, wed
wed1000:00−13nw489690 0.1 1017243
03:00−16wnw599788 0.1 1019212
06:00−17wnw599794 0.0 1020249
09:00−17nw599394 0.1 1022377
12:00−15nw688993 0.0 1023589
15:00−14nw698796 0.1 1024720
18:00−17wnw51093100 0.0 1025340
21:00−19nw499890 0.1 1027222
11 march, thu
thu1100:00−22nw469850 0.0 1028126
03:00−23nnw369731 0.0 1030106
06:00−25nnw34950 0.0 103158
09:00−22nnw35930 0.0 1032199
12:00−18nnw34860 0.0 1033302
15:00−16nnw46885 0.0 1033366
18:00−19nw349611 0.0 103237
21:00−21nnw239610 0.0 103421
12 march, fri
fri1200:00−21nnw22940 0.0 103520
03:00−22nnw23920 0.0 103421
06:00−21nnw23968 0.0 103521
09:00−18n239421 0.0 1036133
12:00−14nne228867 0.0 1037269
15:00−12n118783 0.0 1036277
18:00−17n119670 0.0 103620
21:00−17se119740 0.0 103720
13 march, sat
sat1300:00−17sse22930 0.0 103820
03:00−17s23910 0.0 103821
06:00−17s23900 0.0 103722
09:00−13s36870 0.0 1038186
12:00−8s478019 0.0 1037470
15:00−7s487953 0.0 1035693
18:00−10sse448368 0.0 103463
21:00−11sse487981 0.0 1033143